Time,TemperatureF,DewpointF,PressureIn,WindDirection,WindDirectionDegrees,WindSpeedMPH,WindSpeedGustMPH,Humidity,HourlyPrecipIn,Conditions,Clouds,dailyrainin,SoftwareType,DateUTC
2013-04-29 00:02:00,69.0,63.0,29.90,WSW,240,0.0,0.0,80,0.00,,,0.00,,2013-04-29 05:02:00,
2013-04-29 00:12:00,69.0,63.0,29.90,WSW,240,0.0,0.0,80,0.00,,,0.00,,2013-04-29 05:12:00,
2013-04-29 00:22:00,68.0,62.0,29.88,ESE,110,0.0,2.0,81,0.00,,,0.00,,2013-04-29 05:22:00,
2013-04-29 00:32:00,69.0,63.0,29.88,WNW,290,0.0,3.0,81,0.00,,,0.00,,2013-04-29 05:32:00,
2013-04-29 00:42:00,69.0,63.0,29.88,WNW,290,0.0,3.0,81,0.00,,,0.00,,2013-04-29 05:42:00,
2013-04-29 00:52:00,68.0,62.0,29.89,South,181,0.0,0.0,81,0.00,,,0.00,,2013-04-29 05:52:00,
2013-04-29 01:02:00,68.0,62.0,29.89,NE,47,0.0,2.0,81,0.00,,,0.00,,2013-04-29 06:02:00,
2013-04-29 01:11:00,68.0,62.0,29.89,NE,47,0.0,2.0,81,0.00,,,0.00,,2013-04-29 06:11:00,
2013-04-29 01:21:00,68.0,62.0,29.89,South,183,0.0,0.0,81,0.00,,,0.00,,2013-04-29 06:21:00,
2013-04-29 01:32:00,68.0,62.0,29.89,NE,49,0.0,1.0,81,0.00,,,0.00,,2013-04-29 06:32:00,
2013-04-29 01:42:00,68.0,62.0,29.89,NE,49,0.0,1.0,81,0.00,,,0.00,,2013-04-29 06:42:00,
2013-04-29 01:52:00,68.0,62.0,29.89,East,84,0.0,0.0,81,0.00,,,0.00,,2013-04-29 06:52:00,
2013-04-29 02:01:00,67.0,61.0,29.89,East,87,0.0,0.0,82,0.00,,,0.00,,2013-04-29 07:01:00,
2013-04-29 02:11:00,67.0,61.0,29.89,East,87,0.0,0.0,82,0.00,,,0.00,,2013-04-29 07:11:00,
2013-04-29 02:21:00,67.0,62.0,29.89,SW,219,0.0,0.0,83,0.00,,,0.00,,2013-04-29 07:21:00,
2013-04-29 02:32:00,66.0,61.0,29.88,SSE,167,0.0,0.0,84,0.00,,,0.00,,2013-04-29 07:32:00,
2013-04-29 02:41:00,66.0,61.0,29.88,SSE,167,0.0,0.0,84,0.00,,,0.00,,2013-04-29 07:41:00,
2013-04-29 02:52:00,66.0,61.0,29.88,South,188,0.0,2.0,84,0.00,,,0.00,,2013-04-29 07:52:00,
2013-04-29 03:02:00,67.0,61.0,29.88,SW,221,0.0,3.0,82,0.00,,,0.00,,2013-04-29 08:02:00,
2013-04-29 03:11:00,67.0,61.0,29.88,SW,221,0.0,3.0,82,0.00,,,0.00,,2013-04-29 08:11:00,
2013-04-29 03:21:00,67.0,61.0,29.88,SW,217,0.0,3.0,82,0.00,,,0.00,,2013-04-29 08:21:00,
2013-04-29 03:31:00,67.0,61.0,29.88,SE,138,1.0,6.0,81,0.00,,,0.00,,2013-04-29 08:31:00,
2013-04-29 03:42:00,67.0,61.0,29.88,SE,138,1.0,6.0,81,0.00,,,0.00,,2013-04-29 08:42:00,
2013-04-29 03:52:00,68.0,62.0,29.88,South,169,2.0,8.0,80,0.00,,,0.00,,2013-04-29 08:52:00,
2013-04-29 04:01:00,68.0,62.0,29.88,South,181,1.0,8.0,81,0.00,,,0.00,,2013-04-29 09:01:00,
2013-04-29 04:12:00,68.0,62.0,29.88,South,181,1.0,8.0,81,0.00,,,0.00,,2013-04-29 09:12:00,
2013-04-29 04:21:00,67.0,61.0,29.88,SSE,160,1.0,4.0,81,0.00,,,0.00,,2013-04-29 09:21:00,
2013-04-29 04:32:00,67.0,61.0,29.88,SSE,166,0.0,4.0,82,0.00,,,0.00,,2013-04-29 09:32:00,
2013-04-29 04:42:00,67.0,61.0,29.88,SSE,166,0.0,4.0,82,0.00,,,0.00,,2013-04-29 09:42:00,
2013-04-29 04:53:00,67.0,61.0,29.88,SSE,166,0.0,4.0,82,0.00,,,0.00,,2013-04-29 09:53:00,
2013-04-29 05:02:00,67.0,62.0,29.88,SW,229,0.0,4.0,83,0.00,,,0.00,,2013-04-29 10:02:00,
2013-04-29 05:12:00,67.0,62.0,29.88,SW,229,0.0,4.0,83,0.00,,,0.00,,2013-04-29 10:12:00,
2013-04-29 05:23:00,66.0,61.0,29.88,SE,138,1.0,5.0,84,0.00,,,0.00,,2013-04-29 10:23:00,
2013-04-29 05:32:00,66.0,61.0,29.88,SE,145,0.0,3.0,85,0.00,,,0.00,,2013-04-29 10:32:00,
2013-04-29 05:42:00,66.0,61.0,29.88,SE,145,0.0,3.0,85,0.00,,,0.00,,2013-04-29 10:42:00,
2013-04-29 05:52:00,66.0,61.0,29.88,SSE,150,0.0,2.0,85,0.00,,,0.00,,2013-04-29 10:52:00,
2013-04-29 06:02:00,65.0,61.0,29.88,South,181,0.0,2.0,87,0.00,,,0.00,,2013-04-29 11:02:00,
2013-04-29 06:12:00,65.0,61.0,29.88,South,181,0.0,2.0,87,0.00,,,0.00,,2013-04-29 11:12:00,
2013-04-29 06:21:00,65.0,61.0,29.88,ESE,120,0.0,1.0,87,0.00,,,0.00,,2013-04-29 11:21:00,
2013-04-29 06:32:00,64.0,60.0,29.89,SE,146,0.0,2.0,88,0.00,,,0.00,,2013-04-29 11:32:00,
2013-04-29 06:41:00,64.0,60.0,29.89,SE,146,0.0,2.0,88,0.00,,,0.00,,2013-04-29 11:41:00,
2013-04-29 06:52:00,64.0,61.0,29.89,SSE,166,0.0,3.0,89,0.00,,,0.00,,2013-04-29 11:52:00,
2013-04-29 07:01:00,64.0,61.0,29.89,SSW,198,0.0,2.0,89,0.00,,,0.00,,2013-04-29 12:01:00,
2013-04-29 07:12:00,64.0,61.0,29.89,SSW,198,0.0,2.0,89,0.00,,,0.00,,2013-04-29 12:12:00,
2013-04-29 07:22:00,64.0,61.0,29.90,SSE,150,0.0,2.0,89,0.00,,,0.00,,2013-04-29 12:22:00,
2013-04-29 07:31:00,65.0,62.0,29.90,South,169,0.0,3.0,89,0.00,,,0.00,,2013-04-29 12:31:00,
2013-04-29 07:41:00,65.0,62.0,29.90,South,169,0.0,3.0,89,0.00,,,0.00,,2013-04-29 12:41:00,
2013-04-29 07:52:00,65.0,62.0,29.90,SSW,193,0.0,0.0,89,0.00,,,0.00,,2013-04-29 12:52:00,
2013-04-29 08:01:00,65.0,62.0,29.90,ENE,75,0.0,0.0,89,0.00,,,0.00,,2013-04-29 13:01:00,
2013-04-29 08:11:00,65.0,62.0,29.90,ENE,75,0.0,0.0,89,0.00,,,0.00,,2013-04-29 13:11:00,
2013-04-29 08:21:00,65.0,62.0,29.90,ENE,75,0.0,0.0,89,0.00,,,0.00,,2013-04-29 13:21:00,
2013-04-29 08:31:00,69.0,63.0,29.91,WSW,252,0.0,2.0,82,0.00,,,0.00,,2013-04-29 13:31:00,
2013-04-29 08:42:00,69.0,63.0,29.91,WSW,252,0.0,2.0,82,0.00,,,0.00,,2013-04-29 13:42:00,
2013-04-29 08:52:00,71.0,65.0,29.91,SW,217,0.0,3.0,80,0.00,,,0.00,,2013-04-29 13:52:00,
2013-04-29 09:02:00,72.0,65.0,29.91,West,278,0.0,3.0,79,0.00,,,0.00,,2013-04-29 14:02:00,
2013-04-29 09:11:00,72.0,65.0,29.91,West,278,0.0,3.0,79,0.00,,,0.00,,2013-04-29 14:11:00,
2013-04-29 09:21:00,73.0,66.0,29.91,SSE,165,0.0,5.0,78,0.00,,,0.00,,2013-04-29 14:21:00,
2013-04-29 09:32:00,74.0,66.0,29.91,SE,127,1.0,6.0,75,0.00,,,0.00,,2013-04-29 14:32:00,
2013-04-29 09:42:00,74.0,66.0,29.91,SE,127,1.0,6.0,75,0.00,,,0.00,,2013-04-29 14:42:00,
2013-04-29 09:52:00,74.0,65.0,29.91,SSW,209,3.0,7.0,74,0.00,,,0.00,,2013-04-29 14:52:00,
2013-04-29 10:01:00,74.0,65.0,29.91,SSW,209,3.0,7.0,74,0.00,,,0.00,,2013-04-29 15:01:00,
2013-04-29 10:12:00,74.0,65.0,29.91,SSW,209,3.0,7.0,74,0.00,,,0.00,,2013-04-29 15:12:00,
2013-04-29 10:21:00,75.0,66.0,29.91,SSE,150,1.0,7.0,73,0.00,,,0.00,,2013-04-29 15:21:00,
2013-04-29 10:33:00,75.0,66.0,29.91,SW,232,2.0,8.0,73,0.00,,,0.00,,2013-04-29 15:33:00,
2013-04-29 10:43:00,75.0,66.0,29.91,SW,232,2.0,8.0,73,0.00,,,0.00,,2013-04-29 15:43:00,
2013-04-29 10:53:00,77.0,66.0,29.91,SSW,205,1.0,5.0,70,0.00,,,0.00,,2013-04-29 15:53:00,
2013-04-29 11:02:00,78.0,66.0,29.91,WSW,243,0.0,6.0,67,0.00,,,0.00,,2013-04-29 16:02:00,
2013-04-29 11:12:00,78.0,66.0,29.91,WSW,243,0.0,6.0,67,0.00,,,0.00,,2013-04-29 16:12:00,
2013-04-29 11:23:00,79.0,65.0,29.91,SSW,202,1.0,6.0,63,0.00,,,0.00,,2013-04-29 16:23:00,
2013-04-29 11:32:00,80.0,66.0,29.91,SSW,197,1.0,6.0,62,0.00,,,0.00,,2013-04-29 16:32:00,
2013-04-29 11:42:00,80.0,66.0,29.91,SSW,197,1.0,6.0,62,0.00,,,0.00,,2013-04-29 16:42:00,
2013-04-29 11:52:00,81.0,64.0,29.91,South,188,2.0,7.0,57,0.00,,,0.00,,2013-04-29 16:52:00,
2013-04-29 12:02:00,82.0,64.0,29.91,SW,226,3.0,8.0,54,0.00,,,0.00,,2013-04-29 17:02:00,
2013-04-29 12:12:00,82.0,64.0,29.91,SW,226,3.0,8.0,54,0.00,,,0.00,,2013-04-29 17:12:00,
2013-04-29 12:22:00,82.0,63.0,29.90,SW,216,2.0,9.0,52,0.00,,,0.00,,2013-04-29 17:22:00,
2013-04-29 12:32:00,82.0,62.0,29.90,SE,128,2.0,7.0,51,0.00,,,0.00,,2013-04-29 17:32:00,
2013-04-29 12:42:00,82.0,62.0,29.90,SE,128,2.0,7.0,51,0.00,,,0.00,,2013-04-29 17:42:00,
2013-04-29 12:52:00,84.0,63.0,29.90,SSE,166,1.0,5.0,50,0.00,,,0.00,,2013-04-29 17:52:00,
2013-04-29 13:01:00,84.0,62.0,29.89,SSW,205,2.0,10.0,48,0.00,,,0.00,,2013-04-29 18:01:00,
2013-04-29 13:13:00,84.0,62.0,29.89,SSW,205,2.0,10.0,48,0.00,,,0.00,,2013-04-29 18:13:00,
2013-04-29 13:22:00,84.0,61.0,29.88,NNE,27,2.0,7.0,46,0.00,,,0.00,,2013-04-29 18:22:00,
2013-04-29 13:32:00,84.0,60.0,29.88,WNW,288,1.0,9.0,45,0.00,,,0.00,,2013-04-29 18:32:00,
2013-04-29 13:42:00,84.0,60.0,29.88,WNW,288,1.0,9.0,45,0.00,,,0.00,,2013-04-29 18:42:00,
2013-04-29 13:52:00,85.0,61.0,29.87,NNE,23,0.0,6.0,45,0.00,,,0.00,,2013-04-29 18:52:00,
2013-04-29 14:01:00,85.0,59.0,29.87,SE,139,3.0,9.0,41,0.00,,,0.00,,2013-04-29 19:01:00,
2013-04-29 14:11:00,85.0,59.0,29.87,SE,139,3.0,9.0,41,0.00,,,0.00,,2013-04-29 19:11:00,
2013-04-29 14:21:00,86.0,61.0,29.87,SSE,153,3.0,9.0,43,0.00,,,0.00,,2013-04-29 19:21:00,
2013-04-29 14:31:00,86.0,59.0,29.86,ESE,105,2.0,12.0,40,0.00,,,0.00,,2013-04-29 19:31:00,
2013-04-29 14:41:00,86.0,59.0,29.86,ESE,105,2.0,12.0,40,0.00,,,0.00,,2013-04-29 19:41:00,
2013-04-29 14:52:00,86.0,58.0,29.86,ESE,104,2.0,8.0,39,0.00,,,0.00,,2013-04-29 19:52:00,
2013-04-29 15:02:00,86.0,58.0,29.85,SSE,167,0.0,14.0,39,0.00,,,0.00,,2013-04-29 20:02:00,
2013-04-29 15:11:00,86.0,58.0,29.85,SSE,167,0.0,14.0,39,0.00,,,0.00,,2013-04-29 20:11:00,
2013-04-29 15:21:00,87.0,58.0,29.85,SW,226,2.0,6.0,38,0.00,,,0.00,,2013-04-29 20:21:00,
2013-04-29 15:32:00,86.0,60.0,29.84,SSW,211,1.0,7.0,42,0.00,,,0.00,,2013-04-29 20:32:00,
2013-04-29 15:42:00,86.0,60.0,29.84,SSW,211,1.0,7.0,42,0.00,,,0.00,,2013-04-29 20:42:00,
2013-04-29 15:52:00,87.0,60.0,29.83,East,95,1.0,8.0,41,0.00,,,0.00,,2013-04-29 20:52:00,
2013-04-29 16:01:00,87.0,60.0,29.83,SSW,207,1.0,6.0,41,0.00,,,0.00,,2013-04-29 21:01:00,
2013-04-29 16:11:00,87.0,60.0,29.83,SSW,207,1.0,6.0,41,0.00,,,0.00,,2013-04-29 21:11:00,
2013-04-29 16:21:00,87.0,60.0,29.83,SSW,207,1.0,6.0,41,0.00,,,0.00,,2013-04-29 21:21:00,
2013-04-29 16:33:00,86.0,57.0,29.81,SSW,201,2.0,6.0,38,0.00,,,0.00,,2013-04-29 21:33:00,
2013-04-29 16:42:00,86.0,57.0,29.81,SSW,201,2.0,6.0,38,0.00,,,0.00,,2013-04-29 21:42:00,
2013-04-29 16:53:00,86.0,58.0,29.81,South,179,2.0,7.0,39,0.00,,,0.00,,2013-04-29 21:53:00,
2013-04-29 17:02:00,86.0,57.0,29.80,NE,54,3.0,9.0,38,0.00,,,0.00,,2013-04-29 22:02:00,
2013-04-29 17:13:00,86.0,57.0,29.80,NE,54,3.0,9.0,38,0.00,,,0.00,,2013-04-29 22:13:00,
2013-04-29 17:23:00,86.0,59.0,29.80,West,259,1.0,9.0,40,0.00,,,0.00,,2013-04-29 22:23:00,
2013-04-29 17:32:00,86.0,59.0,29.80,West,259,1.0,9.0,40,0.00,,,0.00,,2013-04-29 22:32:00,
2013-04-29 17:42:00,86.0,59.0,29.80,West,259,1.0,9.0,40,0.00,,,0.00,,2013-04-29 22:42:00,
2013-04-29 17:52:00,86.0,61.0,29.79,ENE,65,3.0,9.0,43,0.00,,,0.00,,2013-04-29 22:52:00,
2013-04-29 18:02:00,84.0,61.0,29.79,NE,49,2.0,8.0,46,0.00,,,0.00,,2013-04-29 23:02:00,
2013-04-29 18:11:00,84.0,61.0,29.79,NE,49,2.0,8.0,46,0.00,,,0.00,,2013-04-29 23:11:00,
2013-04-29 18:22:00,83.0,58.0,29.79,NW,323,3.0,8.0,43,0.00,,,0.00,,2013-04-29 23:22:00,
2013-04-29 18:32:00,83.0,60.0,29.79,NE,41,1.0,7.0,46,0.00,,,0.00,,2013-04-29 23:32:00,
2013-04-29 18:42:00,83.0,60.0,29.79,NE,41,1.0,7.0,46,0.00,,,0.00,,2013-04-29 23:42:00,
2013-04-29 18:52:00,82.0,61.0,29.78,NE,51,1.0,8.0,49,0.00,,,0.00,,2013-04-29 23:52:00,
2013-04-29 19:01:00,82.0,60.0,29.78,SSE,167,0.0,11.0,47,0.00,,,0.00,,2013-04-30 00:01:00,
2013-04-29 19:11:00,82.0,60.0,29.78,SSE,167,0.0,11.0,47,0.00,,,0.00,,2013-04-30 00:11:00,
2013-04-29 19:21:00,81.0,60.0,29.79,East,81,0.0,6.0,49,0.00,,,0.00,,2013-04-30 00:21:00,
2013-04-29 19:32:00,80.0,57.0,29.79,NNW,337,2.0,10.0,45,0.00,,,0.00,,2013-04-30 00:32:00,
2013-04-29 19:41:00,80.0,57.0,29.79,NNW,337,2.0,10.0,45,0.00,,,0.00,,2013-04-30 00:41:00,
2013-04-29 19:52:00,80.0,59.0,29.79,SW,224,0.0,6.0,49,0.00,,,0.00,,2013-04-30 00:52:00,
2013-04-29 20:01:00,79.0,60.0,29.79,SSW,203,1.0,5.0,53,0.00,,,0.00,,2013-04-30 01:01:00,
2013-04-29 20:11:00,79.0,60.0,29.79,SSW,203,1.0,5.0,53,0.00,,,0.00,,2013-04-30 01:11:00,
2013-04-29 20:21:00,78.0,61.0,29.79,NE,44,1.0,7.0,55,0.00,,,0.00,,2013-04-30 01:21:00,
2013-04-29 20:32:00,78.0,62.0,29.80,SSE,156,0.0,5.0,57,0.00,,,0.00,,2013-04-30 01:32:00,
2013-04-29 20:41:00,78.0,62.0,29.80,SSE,156,0.0,5.0,57,0.00,,,0.00,,2013-04-30 01:41:00,
2013-04-29 20:52:00,77.0,62.0,29.80,WNW,294,0.0,3.0,59,0.00,,,0.00,,2013-04-30 01:52:00,
2013-04-29 21:01:00,76.0,60.0,29.80,WNW,285,0.0,5.0,58,0.00,,,0.00,,2013-04-30 02:01:00,
2013-04-29 21:11:00,76.0,61.0,29.80,North,8,0.0,2.0,59,0.00,,,0.00,,2013-04-30 02:11:00,
2013-04-29 21:21:00,76.0,61.0,29.80,North,8,0.0,2.0,59,0.00,,,0.00,,2013-04-30 02:21:00,
2013-04-29 21:31:00,75.0,60.0,29.81,NE,40,0.0,3.0,60,0.00,,,0.00,,2013-04-30 02:31:00,
2013-04-29 21:41:00,75.0,60.0,29.81,NE,40,0.0,3.0,60,0.00,,,0.00,,2013-04-30 02:41:00,
2013-04-29 21:51:00,74.0,60.0,29.82,ESE,111,0.0,0.0,62,0.00,,,0.00,,2013-04-30 02:51:00,
2013-04-29 22:01:00,74.0,61.0,29.82,West,270,0.0,0.0,63,0.00,,,0.00,,2013-04-30 03:01:00,
2013-04-29 22:11:00,73.0,60.0,29.82,NNE,27,0.0,3.0,64,0.00,,,0.00,,2013-04-30 03:11:00,
2013-04-29 22:21:00,73.0,60.0,29.82,NNE,27,0.0,3.0,64,0.00,,,0.00,,2013-04-30 03:21:00,
2013-04-29 22:33:00,72.0,60.0,29.82,SSW,207,0.0,1.0,66,0.00,,,0.00,,2013-04-30 03:33:00,
2013-04-29 22:42:00,72.0,60.0,29.82,SSW,207,0.0,1.0,66,0.00,,,0.00,,2013-04-30 03:42:00,
2013-04-29 22:52:00,71.0,60.0,29.83,SSW,207,0.0,1.0,68,0.00,,,0.00,,2013-04-30 03:52:00,
2013-04-29 23:02:00,70.0,60.0,29.83,SE,134,0.0,1.0,70,0.00,,,0.00,,2013-04-30 04:02:00,
2013-04-29 23:12:00,70.0,61.0,29.82,SE,134,0.0,1.0,72,0.00,,,0.00,,2013-04-30 04:12:00,
2013-04-29 23:22:00,70.0,61.0,29.82,SE,134,0.0,1.0,72,0.00,,,0.00,,2013-04-30 04:22:00,
2013-04-29 23:32:00,69.0,60.0,29.82,SE,134,0.0,0.0,73,0.00,,,0.00,,2013-04-30 04:32:00,
2013-04-29 23:42:00,69.0,60.0,29.82,SE,134,0.0,0.0,73,0.00,,,0.00,,2013-04-30 04:42:00,
2013-04-29 23:52:00,68.0,59.0,29.82,SE,134,0.0,0.0,74,0.00,,,0.00,,2013-04-30 04:52:00,